Location: Recife
(8.0585°S, 34.8848°W)
Time: 10:36:46
(UTC-03:00)

Courier 1B Rocket - Pass Details

Date: 15 April 2026
Orbit: 920 x 1201 km, 28.2° (Epoch: 13 May)

Event Time Altitude Azimuth Distance (km) Brightness Sun altitude
Rises 08:34:04 0° 240° (WSW) 3,791 7.7 45.1°
Reaches altitude 10° 08:38:10 10° 217° (SW) 2,903 7.2 46.0°
Maximum altitude 08:42:00 15° 184° (S) 2,606 7.2 46.9°
Drops below altitude 10° 08:45:58 10° 152° (SSE) 3,015 7.7 47.8°
Sets 08:50:23 0° 130° (SE) 4,028 8.4 48.8°
